Glendale Luke AFB, AZ

5:53 AM MST on July 21, 2017 (GMT -0700)
Luke Air Force Base

Weather History for KLUF - November, 2012

Change the Weather History Date:

Monday, November 19, 2012

  Actual Average Record
Temperature  
Mean Temperature 64 °F -  
Max Temperature 77 °F 74 °F 86 °F (1989)
Min Temperature 51 °F 42 °F 27 °F (1921)
Degree Days  
Heating Degree Days 1    
Growing Degree Days 14 (Base 50)    
Moisture  
Dew Point 40 °F    
Average Humidity 47    
Maximum Humidity 66    
Minimum Humidity 28    
Precipitation  
Precipitation 0.00 in - - ()
Sea Level Pressure  
Sea Level Pressure 30.13 in    
Wind  
Wind Speed 5 mph (NNW)    
Max Wind Speed 10 mph    
Max Gust Speed -    
Visibility 10 miles    
Events      
Averages and records for this station are not official NWS values.
T = Trace of Precipitation, MM = Missing Value Source: NWS Daily Summary

Daily Weather History Graph

Daily Weather History Graph

Search for Another Location

Airport or City:

Trip Planner

Search our weather history database for the weather conditions in past years. The results will help you decide how hot, cold, wet, or windy it might be!

Date:

Astronomy

Nov. 19, 2012 Rise Set
Actual Time 7:05 AM MST 5:24 PM MST
Civil Twilight 6:38 AM MST 5:51 PM MST
Nautical Twilight 6:08 AM MST 6:21 PM MST
Astronomical Twilight 5:38 AM MST 6:51 PM MST
Moon 12:16 PM MST (11/19) 11:47 PM MST (11/19)
Length of Visible Light 11h 12m
Length of Day
10h 19m
Waxing Crescent, 41% of the Moon is Illuminated
Nov 19
Waxing Crescent
Nov 20
First Quarter
Nov 28
Full
Dec 6
Last Quarter
Dec 13
New

Hourly Weather History & Observations

Time (MST) Temp. Dew Point Humidity Pressure Visibility Wind Dir Wind Speed Gust Speed Precip Events Conditions
12:58 AM 55.6 °F 40.8 °F 58% 30.10 in 10.0 mi North 8.1 mph - N/A   Clear
1:58 AM 54.5 °F 41.0 °F 60% 30.10 in 10.0 mi North 5.8 mph - N/A   Clear
2:58 AM 53.6 °F 40.5 °F 61% 30.09 in 10.0 mi NNW 6.9 mph - N/A   Clear
3:58 AM 53.6 °F 40.5 °F 61% 30.10 in 10.0 mi NNW 5.8 mph - N/A   Clear
4:58 AM 52.2 °F 40.3 °F 64% 30.11 in 10.0 mi North 5.8 mph - N/A   Clear
5:58 AM 52.2 °F 40.1 °F 64% 30.13 in 10.0 mi NE 2.3 mph - N/A   Clear
6:58 AM 51.4 °F 40.3 °F 66% 30.15 in 10.0 mi North 8.1 mph - N/A   Clear
7:58 AM 51.4 °F 40.3 °F 66% 30.15 in 10.0 mi North 8.1 mph - N/A   Clear
8:55 AM 59.0 °F 42.8 °F 55% 30.21 in 10.0 mi Calm Calm - N/A   Clear
9:58 AM 66.2 °F 42.8 °F 43% 30.20 in 10.0 mi ENE 4.6 mph - N/A   Clear
11:56 AM 71.6 °F 42.8 °F 35% 30.19 in 10.0 mi Variable 1.2 mph - N/A   Clear
12:56 PM 75.2 °F 42.8 °F 31% 30.16 in 10.0 mi West 2.3 mph - N/A   Clear
1:58 PM 77.2 °F 42.1 °F 29% 30.12 in 10.0 mi Variable 3.5 mph - N/A   Clear
2:58 PM 77.9 °F 41.9 °F 28% 30.10 in 10.0 mi Calm Calm - N/A   Clear
3:58 PM 77.4 °F 41.4 °F 28% 30.09 in 10.0 mi WSW 3.5 mph - N/A   Clear
4:58 PM 76.6 °F 40.8 °F 28% 30.10 in 10.0 mi West 2.3 mph - N/A   Clear
5:58 PM 71.8 °F 42.1 °F 34% 30.12 in 10.0 mi West 3.5 mph - N/A   Clear
6:58 PM 66.9 °F 40.6 °F 38% 30.13 in 10.0 mi WNW 5.8 mph - N/A   Clear
7:58 PM 62.6 °F 40.8 °F 45% 30.14 in 10.0 mi Variable 2.3 mph - N/A   Clear
8:58 PM 61.2 °F 37.0 °F 41% 30.15 in 10.0 mi NNW 9.2 mph - N/A   Clear
9:58 PM 59.0 °F 36.7 °F 43% 30.15 in 10.0 mi North 10.4 mph - N/A   Clear
10:58 PM 57.6 °F 36.7 °F 46% 30.15 in 10.0 mi NNW 8.1 mph - N/A   Clear
11:58 PM 55.8 °F 36.1 °F 48% 30.14 in 10.0 mi North 4.6 mph - N/A   Clear